Location: ??????????
(54.4061°N, 22.6114°E)
Time: 10:33:09
(UTC+00:00)

Okean-O - Pass Details

Date: 23 October 2019
Orbit: 639 x 641 km, 98.2° (Epoch: 18 November)

Event Time Altitude Azimuth Distance (km) Brightness Sun altitude
Rises 16:08:57 0° 170° (S) 2,937 6.0 -8.6°
Reaches altitude 10° 16:11:09 10° 172° (S) 2,033 5.2 -8.9°
Maximum altitude 16:15:34 69° 257° (WSW) 690 3.0 -9.5°
Drops below altitude 10° 16:20:01 10° 341° (NNW) 2,048 5.4 -10.2°
Sets 16:22:15 0° 344° (NNW) 2,962 6.2 -10.5°
